Location: Jackson Park
(37.2862°N, 79.9123°W)
Time: 14:19:29
(UTC+00:00)

Vanguard 2 Rocket - Pass Details

Date: 11 May 2026
Orbit: 553 x 3286 km, 32.9° (Epoch: 6 June)

Event Time Altitude Azimuth Distance (km) Brightness Sun altitude
Rises 19:41:26 0° 267° (W) 6,496 11.8 52.8°
Reaches altitude 10° 19:45:19 10° 266° (W) 5,725 11.8 52.1°
Maximum altitude 20:04:26 77° 185° (S) 3,340 10.7 48.5°
Drops below altitude 10° 20:22:56 10° 103° (ESE) 5,566 10.6 44.9°
Sets 20:26:39 0° 102° (ESE) 6,316 10.8 44.2°
